EW8459 Weather Reports


time (UTC)temp
F
wind
direction
speed
knots
gust
knots
rain 1hr
in
rain 24hr
in
rain mn
in
humidity
%
barometer
mb
20260507212006 62 284 2.6 9.6 0.00 0.00 0.00 31 1003.7
20260507211503 62 270 2.6 7.0 0.00 0.00 0.00 31 1003.4
20260507211006 62 290 2.6 6.1 0.00 0.00 0.00 31 1003.6
20260507210503 62 340 1.7 5.2 0.00 0.00 0.00 32 1003.6
20260507210007 62 292 1.7 7.0 0.00 0.00 0.00 31 1003.6
20260507205503 62 267 2.6 7.0 0.00 0.00 0.00 31 1003.6
20260507205007 62 323 2.6 7.0 0.00 0.00 0.00 30 1003.5
20260507204505 62 333 2.6 9.6 0.00 0.00 0.00 30 1003.5
20260507204006 62 326 1.7 9.6 0.00 0.00 0.00 32 1003.6
20260507203504 62 306 1.7 7.0 0.00 0.00 0.00 32 1003.5
20260507203006 62 303 2.6 6.1 0.00 0.00 0.00 32 1003.5
20260507202725 62 214 2.6 8.7 0.00 0.00 0.00 30 1003.4
20260507202006 62 311 2.6 8.7 0.00 0.00 0.00 30 1003.6
20260507201941 62 321 2.6 7.0 0.00 0.00 0.00 31 1003.5
20260507201007 62 174 2.6 9.6 0.00 0.00 0.00 29 1003.6
20260507200504 62 311 2.6 9.6 0.00 0.00 0.00 29 1003.7
20260507200007 63 296 2.6 8.7 0.00 0.00 0.00 30 1003.7
20260507195504 63 327 2.6 9.6 0.00 0.00 0.00 31 1003.6
20260507195006 63 211 2.6 9.6 0.00 0.00 0.00 31 1003.6
20260507194504 63 259 1.7 5.2 0.00 0.00 0.00 32 1003.6
20260507194228 62 294 1.7 5.2 0.00 0.00 0.00 31 1003.7
20260507193504 62 284 1.7 6.1 0.00 0.00 0.00 33 1003.7
20260507193007 62 272 1.7 6.1 0.00 0.00 0.00 31 1003.8
20260507192503 62 184 2.6 6.1 0.00 0.00 0.00 31 1003.9
20260507192006 62 350 2.6 8.7 0.00 0.00 0.00 30 1003.9
20260507191719 62 11 2.6 9.6 0.00 0.00 0.00 32 1004.0
20260507191004 62 310 2.6 9.6 0.00 0.00 0.00 32 1004.2
20260507190949 63 317 2.6 8.7 0.00 0.00 0.00 33 1004.0
20260507190005 62 326 3.5 8.7 0.00 0.00 0.00 34 1004.0
20260507185502 63 326 2.6 8.7 0.00 0.00 0.00 32 1004.0
20260507185005 63 290 1.7 8.7 0.00 0.00 0.00 32 1004.2
20260507184502 63 232 1.7 6.1 0.00 0.00 0.00 32 1004.2
20260507184004 63 253 2.6 7.0 0.00 0.00 0.00 32 1004.3
20260507183501 63 304 3.5 7.0 0.00 0.00 0.00 32 1004.3
20260507183005 63 331 2.6 8.7 0.00 0.00 0.00 33 1004.3
20260507182723 63 317 2.6 8.7 0.00 0.00 0.00 34 1004.3
20260507182005 63 315 2.6 7.8 0.00 0.00 0.00 34 1004.3
20260507181502 63 240 2.6 7.8 0.00 0.00 0.00 33 1004.3
20260507181005 63 348 2.6 5.2 0.00 0.00 0.00 32 1004.3
20260507180501 63 284 2.6 5.2 0.00 0.00 0.00 34 1004.4
20260507180005 63 307 1.7 5.2 0.00 0.00 0.00 34 1004.4
20260507175502 63 287 1.7 5.2 0.00 0.00 0.00 35 1004.3
20260507175003 63 278 2.6 5.2 0.00 0.00 0.00 34 1004.3
20260507174502 63 273 2.6 5.2 0.00 0.00 0.00 34 1004.2
20260507174224 62 230 2.6 7.0 0.00 0.00 0.00 35 1004.3
20260507173501 63 326 2.6 7.0 0.00 0.00 0.00 34 1004.3
20260507173002 62 298 1.7 7.0 0.00 0.00 0.00 37 1004.4
20260507172503 62 313 2.6 7.0 0.00 0.00 0.00 36 1004.5
20260507172002 62 355 2.6 6.1 0.00 0.00 0.00 34 1004.4
20260507171503 62 283 2.6 7.8 0.00 0.00 0.00 37 1004.5
20260507171002 62 26 3.5 8.7 0.00 0.00 0.00 35 1004.4
20260507170502 62 321 3.5 8.7 0.00 0.00 0.00 39 1004.6
20260507170002 62 229 2.6 6.1 0.00 0.00 0.00 36 1004.6
20260507165502 62 320 2.6 7.8 0.00 0.00 0.00 40 1004.7
20260507165227 62 300 2.6 7.8 0.00 0.00 0.00 39 1004.7
20260507164503 62 348 2.6 7.8 0.00 0.00 0.00 41 1004.8
20260507164001 61 313 2.6 7.8 0.00 0.00 0.00 44 1004.8
20260507163502 61 281 2.6 7.8 0.00 0.00 0.00 45 1005.0
20260507163002 60 286 2.6 5.2 0.00 0.00 0.00 45 1005.0
20260507162503 60 285 1.7 5.2 0.00 0.00 0.00 49 1005.0
20260507162002 61 263 0.9 5.2 0.00 0.00 0.00 51 1005.1
20260507161501 60 147 0.9 3.5 0.00 0.00 0.00 53 1005.0
20260507161001 59 266 0.9 5.2 0.00 0.00 0.00 52 1005.0
20260507160502 59 134 0.9 5.2 0.00 0.00 0.00 54 1005.2
20260507160227 59 309 1.7 4.3 0.00 0.00 0.00 53 1005.2
20260507155502 60 327 1.7 3.5 0.00 0.00 0.00 53 1005.3
20260507155001 60 245 1.7 5.2 0.00 0.00 0.00 52 1005.3
20260507154502 60 230 2.6 5.2 0.00 0.00 0.00 51 1005.4
20260507154440 60 339 1.7 5.2 0.00 0.00 0.00 55 1005.4
20260507153502 59 345 1.7 5.2 0.00 0.00 0.00 56 1005.5
20260507153001 59 327 1.7 6.1 0.00 0.00 0.00 52 1005.6
20260507152502 60 250 1.7 6.1 0.00 0.00 0.00 53 1005.6
20260507152001 60 279 1.7 4.3 0.00 0.00 0.00 52 1005.6
20260507151502 60 296 1.7 5.2 0.00 0.00 0.00 52 1005.6
20260507151002 60 307 1.7 5.2 0.00 0.00 0.00 51 1005.7
20260507150502 60 213 0.9 3.5 0.00 0.00 0.00 54 1005.8
20260507150452 60 204 0.9 4.3 0.00 0.00 0.00 51 1005.8
20260507145501 60 320 0.9 4.3 0.00 0.00 0.00 54 1005.9
20260507145001 60 34 0.9 3.5 0.00 0.00 0.00 51 1005.9
20260507144501 60 263 0.9 3.5 0.00 0.00 0.00 52 1005.9
20260507144232 60 244 0.9 3.5 0.00 0.00 0.00 51 1005.9
20260507143501 59 257 1.7 3.5 0.00 0.00 0.00 54 1005.8
20260507143004 59 318 1.7 5.2 0.00 0.00 0.00 51 1005.8
20260507142502 59 301 1.7 5.2 0.00 0.00 0.00 52 1005.8
20260507141958 59 41 1.7 4.3 0.00 0.00 0.00 53 1005.9
20260507141448 58 290 1.7 3.5 0.00 0.00 0.00 54 1005.8
20260507141204 58 282 1.7 7.0 0.00 0.00 0.00 53 1005.8
20260507140441 58 318 1.7 7.0 0.00 0.00 0.00 57 1005.8
20260507140205 58 338 0.9 4.3 0.00 0.00 0.00 55 1005.8
20260507135648 58 218 0.9 2.6 0.00 0.00 0.00 56 1005.7
20260507135633 58 13 0.9 3.5 0.00 0.00 0.00 56 1005.8
20260507134700 58 323 0.0 2.6 0.00 0.00 0.00 62 1005.7
20260507134205 57 325 0.9 2.6 0.00 0.00 0.00 61 1005.8
20260507133437 57 324 0.0 1.7 0.00 0.00 0.00 61 1005.9
20260507133204 56 309 0.9 4.3 0.00 0.00 0.00 65 1006.0
20260507132700 56 346 0.9 4.3 0.00 0.00 0.00 63 1006.2
20260507131935 55 264 0.9 2.6 0.00 0.00 0.00 66 1006.2
20260507131652 55 318 1.7 3.5 0.00 0.00 0.00 64 1006.2
20260507130931 54 234 1.7 3.5 0.00 0.00 0.00 68 1006.3
20260507130431 54 277 1.7 3.5 0.00 0.00 0.00 69 1006.2
20260507130153 54 309 0.9 3.5 0.00 0.00 0.00 71 1006.3
20260507125431 53 26 0.0 6.1 0.00 0.00 0.00 73 1006.4
20260507125159 53 333 0.9 6.1 0.00 0.00 0.00 73 1006.3
20260507124430 53 288 1.7 3.5 0.00 0.00 0.00 73 1006.5
20260507123924 52 13 1.7 5.2 0.00 0.00 0.00 72 1006.4
20260507123419 52 311 2.6 5.2 0.00 0.00 0.00 71 1006.4
20260507122915 52 322 1.7 5.2 0.00 0.00 0.00 73 1006.5
20260507122415 51 280 1.7 6.1 0.00 0.00 0.00 74 1006.4
20260507122139 51 23 0.9 6.1 0.00 0.00 0.00 77 1006.6
20260507121638 51 291 1.7 4.3 0.00 0.00 0.00 78 1006.5
20260507120914 50 283 0.9 4.3 0.00 0.00 0.00 79 1006.6
20260507120413 50 282 0.9 2.6 0.00 0.00 0.00 81 1006.6
20260507115913 49 298 0.9 2.6 0.00 0.00 0.00 83 1006.5
20260507115411 49 275 0.0 1.7 0.00 0.00 0.00 83 1006.4
20260507114909 49 284 0.0 2.6 0.00 0.00 0.00 83 1006.5
20260507114407 49 285 0.0 2.6 0.00 0.00 0.00 82 1006.5
20260507113905 48 284 0.0 2.6 0.00 0.00 0.00 83 1006.4
20260507113403 48 289 0.9 3.5 0.00 0.00 0.00 83 1006.4
20260507112903 48 281 0.9 3.5 0.00 0.00 0.00 84 1006.1
20260507112405 48 329 0.0 2.6 0.00 0.00 0.00 84 1006.2
20260507112342 48 248 0.0 0.0 0.00 0.00 0.00 85 1006.1
20260507112059 48 324 0.0 0.0 0.00 0.00 0.00 85 1006.2
20260507110904 48 245 0.0 0.0 0.00 0.00 0.00 86 1006.4
20260507110404 48 245 0.0 0.9 0.00 0.00 0.00 86 1006.4
20260507110126 48 0 0.0 0.9 0.00 0.00 0.00 85 1006.4
20260507105403 48 9 0.0 1.7 0.00 0.00 0.00 85 1006.2
20260507104904 48 9 0.0 1.7 0.00 0.00 0.00 85 1005.8
20260507104851 48 319 0.0 1.7 0.00 0.00 0.00 85 1006.0
20260507103903 48 329 0.9 6.1 0.00 0.00 0.00 85 1005.8
20260507103402 48 339 0.9 6.1 0.00 0.00 0.00 85 1005.8
20260507102902 48 350 0.9 3.5 0.00 0.00 0.00 85 1005.7
20260507102401 48 321 0.0 2.6 0.00 0.00 0.00 86 1005.6
20260507102124 48 321 0.9 2.6 0.00 0.00 0.00 85 1005.8
20260507101403 48 319 0.9 2.6 0.00 0.00 0.00 86 1005.9
20260507100902 48 342 0.9 3.5 0.00 0.00 0.00 86 1005.8
20260507100402 48 257 0.9 3.5 0.00 0.00 0.00 86 1005.8
20260507095902 48 24 0.9 2.6 0.00 0.00 0.00 87 1005.6
20260507095632 48 267 0.9 2.6 0.00 0.00 0.00 86 1006.1
20260507094902 48 297 0.0 2.6 0.00 0.00 0.00 87 1005.8
20260507094402 48 296 0.9 3.5 0.00 0.00 0.00 87 1005.6
20260507094126 48 294 0.9 3.5 0.00 0.00 0.00 88 1005.9
20260507093404 48 9 0.9 6.1 0.00 0.00 0.00 88 1005.7
20260507092859 48 291 0.9 6.1 0.00 0.00 0.00 88 1005.7
20260507092353 48 295 0.9 3.5 0.00 0.00 0.00 88 1005.8
20260507091851 48 298 0.0 2.6 0.00 0.00 0.00 89 1005.7
20260507091830 48 286 0.0 2.6 0.01 0.00 0.00 89 1006.0
20260507090851 48 323 0.0 1.7 0.01 0.00 0.00 89 1005.7
20260507090351 48 311 0.0 0.9 0.01 0.00 0.00 90 1005.6
20260507085849 48 315 0.0 0.9 0.01 0.00 0.00 89 1005.5
20260507085349 48 315 0.0 0.9 0.01 0.00 0.00 89 1005.4
20260507084849 48 310 0.0 0.9 0.01 0.00 0.00 89 1005.5
20260507084349 48 328 0.0 1.7 0.01 0.00 0.00 89 1005.7
20260507083849 49 328 0.0 1.7 0.01 0.00 0.00 89 1005.5
20260507083347 49 298 0.0 1.7 0.01 0.00 0.00 88 1005.5
20260507083104 49 298 0.9 3.5 0.01 0.00 0.00 88 1005.4
20260507082343 49 342 0.9 3.5 0.01 0.00 0.00 88 1005.5
20260507082104 49 277 0.0 2.6 0.01 0.00 0.00 88 1005.3
20260507081341 49 255 0.0 1.7 0.00 0.00 0.00 87 1005.3
20260507081329 49 266 0.9 2.6 0.00 0.00 0.00 87 1005.3
20260507080608 50 323 0.9 3.5 0.00 0.00 0.00 86 1005.4
20260507075837 50 294 0.9 3.5 0.00 0.00 0.00 86 1005.5
20260507075335 50 311 0.9 2.6 0.00 0.00 0.00 85 1005.4
20260507074834 50 273 0.9 4.3 0.00 0.00 0.00 85 1005.7
20260507074335 50 297 1.7 6.1 0.00 0.00 0.00 85 1005.6
20260507073833 50 297 1.7 6.1 0.00 0.00 0.00 85 1005.3
20260507073331 50 305 1.7 6.1 0.00 0.00 0.00 86 1005.0
20260507072831 50 286 0.9 6.1 0.00 0.00 0.00 86 1005.1
20260507072333 50 334 1.7 6.1 0.00 0.00 0.00 86 1004.8
20260507071830 50 318 2.6 8.7 0.00 0.00 0.00 85 1005.0
20260507071559 50 296 2.6 8.7 0.00 0.00 0.00 85 1005.1
20260507071056 50 335 1.7 9.6 0.00 0.00 0.00 87 1005.1
20260507070333 50 316 1.7 9.6 0.00 0.00 0.00 87 1005.3
20260507065831 51 300 0.9 7.0 0.00 0.00 0.00 88 1004.8
20260507065330 51 289 0.9 7.0 0.00 0.00 0.00 88 1005.0
20260507064829 51 299 0.0 0.0 0.00 0.00 0.00 89 1004.9
20260507064553 51 329 0.0 0.0 0.00 0.00 0.00 89 1004.9
20260507063823 51 289 0.0 0.0 0.00 0.00 0.00 90 1004.8
20260507063321 51 285 0.0 0.0 0.00 0.00 0.00 90 1004.6
20260507062821 51 289 0.0 0.0 0.00 0.00 0.00 89 1004.5
20260507062321 51 289 0.0 3.5 0.00 0.00 0.00 90 1004.6
20260507061821 51 288 0.0 3.5 0.00 0.00 0.00 89 1004.7
20260507061320 51 302 0.0 1.7 0.00 0.00 0.00 89 1004.6
20260507060821 51 336 0.0 2.6 0.00 0.00 0.00 89 1004.6
20260507060321 51 295 0.9 2.6 0.00 0.00 0.00 90 1004.7
20260507055821 52 302 0.9 5.2 0.00 0.00 0.00 90 1004.8
20260507055548 52 254 0.9 5.2 0.00 0.00 0.00 90 1004.8
20260507054820 52 264 0.0 1.7 0.00 0.00 0.00 91 1005.0
20260507054320 52 310 0.0 1.7 0.00 0.00 0.00 92 1005.0
20260507053821 52 318 0.0 1.7 0.00 0.00 0.00 91 1005.1
20260507053325 52 318 0.0 1.7 0.00 0.00 0.00 92 1004.8
20260507052823 52 282 0.0 1.7 0.00 0.00 0.00 92 1005.0
20260507052325 52 325 0.0 0.9 0.00 0.00 0.00 92 1005.2
20260507051822 52 291 0.0 2.6 0.00 0.00 0.00 92 1005.3
20260507051325 52 288 0.0 2.6 0.00 0.00 0.00 91 1005.1
20260507050815 52 304 0.0 0.0 0.00 0.00 0.00 91 1004.9
20260507050803 53 318 0.9 0.0 0.00 0.00 0.00 91 1005.0
20260507045652 53 288 0.9 2.6 0.00 0.00 0.00 91 1005.0
20260507045154 53 303 0.9 2.6 0.00 0.00 0.00 92 1004.9
20260507044650 53 295 0.9 2.6 0.00 0.00 0.00 92 1004.8
20260507044144 53 285 0.9 2.6 0.00 0.00 0.00 92 1004.7
20260507043638 53 277 0.9 2.6 0.00 0.00 0.00 91 1004.9
20260507043136 53 277 0.9 3.5 0.00 0.00 0.00 91 1004.8
20260507042637 54 311 1.7 4.3 0.00 0.00 0.00 91 1004.9
20260507042136 54 295 1.7 6.1 0.00 0.00 0.00 90 1004.9
20260507041636 54 287 1.7 6.1 0.01 0.00 0.00 90 1005.0
20260507041401 55 292 1.7 6.1 0.01 0.00 0.00 90 1005.1
20260507040634 55 290 1.7 6.1 0.01 0.00 0.00 91 1005.0
20260507040137 56 269 1.7 6.1 0.01 0.00 0.00 91 1004.7
20260507035633 56 308 1.7 6.1 0.01 0.00 0.00 91 1004.6
20260507035133 57 321 1.7 7.0 0.01 0.00 0.00 91 1004.5
20260507034631 58 313 1.7 7.0 0.01 0.00 0.00 90 1004.4
20260507034134 58 327 1.7 6.1 0.01 0.00 0.00 91 1004.3
20260507033630 59 326 0.9 5.2 0.01 0.00 0.00 92 1004.2
20260507033134 59 316 0.9 5.2 0.01 0.00 0.00 93 1004.1
20260507032631 59 299 0.9 7.0 0.01 0.00 0.00 93 1003.9
20260507032131 60 298 0.9 7.0 0.01 0.00 0.00 94 1003.9
20260507031631 60 325 0.0 1.7 0.00 0.00 0.00 93 1003.9
20260507031130 60 275 0.0 2.6 0.00 0.00 0.00 93 1003.8
20260507030631 60 245 0.0 2.6 0.00 0.00 0.00 93 1003.7
20260507030127 60 317 0.9 3.5 0.00 0.00 0.00 93 1003.8
20260507025620 60 220 0.9 3.5 0.00 0.00 0.00 93 1003.7
20260507025116 60 162 0.0 3.5 0.00 0.00 0.00 93 1003.6
20260507024607 60 155 0.0 3.5 0.00 0.00 0.00 93 1003.6
20260507024306 60 180 0.9 3.5 0.00 0.00 0.00 93 1003.7
20260507024252 60 206 0.0 3.5 0.00 0.00 0.00 93 1003.7
20260507023106 60 179 0.0 2.6 0.00 0.00 0.00 93 1003.7
20260507022602 60 170 0.0 3.5 0.00 0.00 0.00 93 1003.5
20260507022105 60 202 0.9 3.5 0.00 0.00 0.00 93 1003.6
20260507021826 60 151 0.9 3.5 0.00 0.00 0.00 93 1003.6
20260507021105 60 156 0.9 3.5 0.00 0.00 0.00 93 1003.5
20260507020603 60 184 1.7 5.2 0.00 0.00 0.00 93 1003.6
20260507020329 60 200 1.7 5.2 0.00 0.00 0.00 93 1003.7
20260507015604 60 188 0.9 3.5 0.00 0.00 0.00 93 1003.7
20260507015106 60 192 0.9 3.5 0.00 0.00 0.00 93 1003.8
20260507014604 60 182 0.9 4.3 0.00 0.00 0.00 93 1003.7
20260507014105 60 152 0.9 4.3 0.00 0.00 0.00 93 1003.8
20260507013820 60 187 0.9 3.5 0.00 0.00 0.00 93 1003.8
20260507013104 60 162 1.7 7.0 0.00 0.00 0.00 93 1003.8
20260507012602 60 177 1.7 7.0 0.00 0.00 0.00 93 1003.9
20260507012104 60 163 1.7 5.2 0.00 0.00 0.00 93 1003.9
20260507011602 60 164 1.7 5.2 0.00 0.00 0.00 93 1003.9
20260507011102 60 234 1.7 4.3 0.00 0.00 0.00 93 1003.9
20260507010602 60 155 1.7 6.1 0.00 0.00 0.00 93 1004.0
20260507005602 60 155 2.6 6.1 0.00 0.00 0.00 93 1003.9
20260507005102 60 177 2.6 5.2 0.00 0.00 0.00 93 1003.9
20260507004602 60 171 1.7 6.1 0.00 0.00 0.00 93 1003.8
20260507004103 60 179 2.6 6.1 0.00 0.00 0.00 93 1003.8
20260507003602 60 165 2.6 5.2 0.00 0.00 0.00 93 1003.7
20260507003102 60 156 2.6 6.1 0.01 0.00 0.00 93 1003.8
20260507002824 60 113 2.6 6.1 0.02 0.00 0.00 93 1003.9
20260507002102 60 161 1.7 4.3 0.04 0.00 0.00 93 1003.8
20260507001602 60 191 1.7 4.3 0.05 0.00 0.00 93 1003.8
20260507001327 60 171 1.7 4.3 0.05 0.00 0.00 93 1003.7
20260507000603 60 151 1.7 6.1 0.06 0.00 0.00 93 1003.7
20260506235604 60 173 1.7 4.3 0.07 0.00 0.00 93 1003.6
20260506235316 60 163 1.7 4.3 0.08 0.00 0.00 93 1003.6
20260506234550 60 150 1.7 5.2 0.10 0.00 0.00 93 1003.6
20260506234044 60 157 1.7 5.2 0.11 0.00 0.00 93 1003.5
20260506233538 60 161 1.7 5.2 0.12 0.00 0.00 93 1003.7
20260506233034 60 153 2.6 5.2 0.13 0.00 0.00 93 1003.6
20260506232527 60 162 2.6 6.1 0.13 0.00 0.00 93 1003.6
20260506232242 60 206 2.6 6.1 0.11 0.00 0.00 93 1003.7
20260506231514 60 155 2.6 4.3 0.11 0.00 0.00 93 1003.7
20260506231009 60 162 1.7 4.3 0.12 0.00 0.00 93 1003.8
20260506230507 60 161 1.7 7.0 0.12 0.00 0.00 92 1004.0
20260506230006 60 178 1.7 7.0 0.11 0.00 0.00 93 1003.9
20260506225507 60 174 2.6 5.2 0.11 0.00 0.00 92 1003.8
20260506225007 60 155 1.7 4.3 0.09 0.00 0.00 92 1003.9
20260506224505 60 173 1.7 3.5 0.09 0.00 0.00 92 1004.0
20260506224005 60 159 1.7 4.3 0.08 0.00 0.00 92 1004.0
20260506223725 60 163 2.6 4.3 0.06 0.00 0.00 92 1004.0
20260506223004 60 107 1.7 4.3 0.05 0.00 0.00 92 1004.0
20260506222503 60 163 1.7 4.3 0.04 0.00 0.00 92 1004.1
20260506222002 60 171 1.7 6.1 0.05 0.00 0.00 92 1004.0
20260506221504 60 167 1.7 6.1 0.04 0.00 0.00 92 1004.1
20260506221003 60 167 1.7 4.3 0.04 0.00 0.00 92 1004.2
20260506220502 60 142 2.6 7.8 0.04 0.00 0.00 92 1004.3
20260506220002 60 183 2.6 7.8 0.05 0.00 0.00 91 1004.3
20260506215503 60 161 2.6 5.2 0.06 0.00 0.00 92 1004.3
20260506215002 61 163 2.6 5.2 0.07 0.00 0.00 91 1004.2
20260506214503 61 172 2.6 4.3 0.06 0.00 0.00 91 1004.3
20260506214002 61 164 2.6 4.3 0.07 0.00 0.00 91 1004.5
20260506213502 61 171 2.6 5.2 0.08 0.00 0.00 91 1004.5
20260506213002 61 176 2.6 7.0 0.09 0.00 0.00 91 1004.5
20260506212727 61 167 2.6 7.0 0.10 0.00 0.00 91 1004.6